Weather History for Brooksville, FL

Change the Weather History Date:

Friday, June 14, 2013

  Actual Average Record
Temperature  
Mean Temperature 80 °F -  
Max Temperature 88 °F 88 °F 93 °F (1998)
Min Temperature 73 °F 68 °F 64 °F (2007)
Cooling Degree Days 15    
Growing Degree Days 30 (Base 50)    
Moisture  
Dew Point 73 °F    
Average Humidity 79    
Maximum Humidity 97    
Minimum Humidity 59    
Precipitation  
Precipitation 0.00 in - - ()
Sea Level Pressure  
Sea Level Pressure 29.93 in    
Wind  
Wind Speed 7 mph (SW)    
Max Wind Speed 15 mph    
Max Gust Speed 22 mph    
Visibility 10 miles    
Events      
Averages and records for this station are not official NWS values.
T = Trace of Precipitation, MM = Missing Value Source: NWS Daily Summary

Daily Weather History Graph

Daily Weather History Graph

Search for Another Location

Airport:

Trip Planner

Search our weather history database for the weather conditions in past years. The results will help you decide how hot, cold, wet, or windy it might be!

Date:

Astronomy

Jun. 14, 2013 Rise Set
Actual Time 6:31 AM EDT 8:28 PM EDT
Civil Twilight 6:05 AM EDT 8:55 PM EDT
Nautical Twilight 5:32 AM EDT 9:27 PM EDT
Astronomical Twilight 4:58 AM EDT 10:02 PM EDT
Moon 11:42 AM EDT (6/14) No Moon Set
Length of Visible Light 14h 50m
Length of Day
13h 56m
Waxing Crescent, 30% of the Moon is Illuminated
Jun 14
Waxing Crescent
Jun 16
First Quarter
Jun 23
Full
Jun 30
Last Quarter
Jul 8
New

Hourly Weather History & Observations

Time (EDT) Temp. Heat Index Dew Point Humidity Pressure Visibility Wind Dir Wind Speed Gust Speed Precip Events Conditions
12:46 AM 75.2 °F - 73.4 °F 94% 29.97 in 10.0 mi SSE 4.6 mph - N/A   Mostly Cloudy
12:53 AM 75.9 °F - 73.0 °F 91% 29.96 in 10.0 mi South 4.6 mph - N/A   Mostly Cloudy
1:16 AM 75.2 °F - 73.4 °F 94% 29.96 in 10.0 mi South 5.8 mph - N/A   Scattered Clouds
1:53 AM 75.0 °F - 73.0 °F 94% 29.94 in 10.0 mi South 4.6 mph - N/A   Clear
2:53 AM 73.9 °F - 73.0 °F 97% 29.93 in 10.0 mi SW 4.6 mph - N/A   Clear
3:53 AM 73.9 °F - 72.0 °F 93% 29.92 in 10.0 mi Calm Calm - N/A   Partly Cloudy
4:53 AM 73.9 °F - 72.0 °F 93% 29.90 in 10.0 mi SSW 5.8 mph - N/A   Clear
5:53 AM 73.0 °F - 71.1 °F 93% 29.91 in 10.0 mi SSW 4.6 mph - N/A   Partly Cloudy
6:53 AM 73.9 °F - 72.0 °F 93% 29.91 in 10.0 mi South 4.6 mph - N/A   Partly Cloudy
7:53 AM 77.0 °F - 73.9 °F 90% 29.92 in 10.0 mi SSW 4.6 mph - N/A   Clear
8:53 AM 82.0 °F 87.9 °F 73.9 °F 76% 29.93 in 10.0 mi WSW 9.2 mph - N/A   Scattered Clouds
9:53 AM 84.0 °F 90.2 °F 73.0 °F 69% 29.94 in 10.0 mi West 11.5 mph - N/A   Scattered Clouds
10:53 AM 82.9 °F 87.5 °F 71.1 °F 67% 29.96 in 10.0 mi West 13.8 mph - N/A   Mostly Cloudy
11:06 AM 84.2 °F 88.4 °F 69.8 °F 62% 29.97 in 10.0 mi West 15.0 mph 21.9 mph N/A   Mostly Cloudy
11:53 AM 84.0 °F 87.8 °F 69.1 °F 61% 29.96 in 10.0 mi West 10.4 mph - N/A   Clear
12:53 PM 82.9 °F 87.0 °F 70.0 °F 65% 29.96 in 10.0 mi West 15.0 mph 19.6 mph N/A   Clear
1:53 PM 86.0 °F 92.2 °F 72.0 °F 63% 29.93 in 10.0 mi WSW 9.2 mph - N/A   Clear
2:53 PM 86.0 °F 90.7 °F 70.0 °F 59% 29.91 in 10.0 mi WSW 5.8 mph - N/A   Clear
3:53 PM 87.1 °F 92.8 °F 71.1 °F 59% 29.92 in 10.0 mi West 11.5 mph 17.3 mph N/A   Clear
4:53 PM 84.9 °F 90.7 °F 72.0 °F 65% 29.90 in 10.0 mi West 11.5 mph - N/A   Scattered Clouds
5:53 PM 84.0 °F 91.2 °F 73.9 °F 72% 29.90 in 10.0 mi WSW 10.4 mph - N/A   Mostly Cloudy
6:53 PM 84.0 °F 91.2 °F 73.9 °F 72% 29.92 in 10.0 mi West 6.9 mph - N/A   Partly Cloudy
7:19 PM 82.4 °F 88.2 °F 73.4 °F 74% 29.91 in 10.0 mi WSW 10.4 mph - N/A   Mostly Cloudy
7:27 PM 82.4 °F 88.2 °F 73.4 °F 74% 29.90 in 10.0 mi WSW 11.5 mph - N/A   Mostly Cloudy
7:53 PM 82.9 °F 90.2 °F 75.0 °F 77% 29.92 in 10.0 mi West 9.2 mph - N/A   Scattered Clouds
8:15 PM 82.4 °F 89.5 °F 75.2 °F 79% 29.92 in 10.0 mi WSW 5.8 mph - N/A   Mostly Cloudy
8:53 PM 81.0 °F 86.7 °F 75.0 °F 82% 29.92 in 10.0 mi WSW 5.8 mph - N/A   Mostly Cloudy
9:32 PM 80.6 °F 86.2 °F 75.2 °F 84% 29.93 in 10.0 mi South 4.6 mph - N/A   Mostly Cloudy
9:53 PM 80.1 °F 85.1 °F 75.0 °F 85% 29.94 in 10.0 mi South 3.5 mph - N/A   Mostly Cloudy
10:53 PM 80.1 °F 85.1 °F 75.0 °F 85% 29.94 in 10.0 mi South 5.8 mph - N/A   Overcast
11:48 PM 78.8 °F - 75.2 °F 89% 29.97 in 10.0 mi SSW 4.6 mph - N/A   Scattered Clouds
11:53 PM 79.0 °F - 75.0 °F 88% 29.96 in 10.0 mi SSW 4.6 mph - N/A   Scattered Clouds